Campo, CA

7:23 PM PDT on July 20, 2019 (GMT -0700)
Campo

Weather History for KCZZ - May, 2019

Change the Weather History Date:

Sunday, May 19, 2019

  Actual Average Record
Temperature  
Mean Temperature 51 °F 61 °F  
Max Temperature 56 °F 80 °F 95 °F (2008)
Min Temperature 46 °F 42 °F 31 °F (1982)
Degree Days  
Heating Degree Days 14 5  
Month to date heating degree days 159 110  
Since 1 July heating degree days 2877 2878  
Cooling Degree Days 0 1  
Month to date cooling degree days 0 14  
Year to date cooling degree days 2 17  
Moisture  
Dew Point 45 °F    
Average Humidity 80    
Maximum Humidity 93    
Minimum Humidity 66    
Precipitation  
Precipitation 0.18 in 0.01 in 0.18 in (2019)
Month to date precipitation 0.77 0.15  
Year to date precipitation 11.96 10.01  
Sea Level Pressure  
Sea Level Pressure 29.82 in    
Wind  
Wind Speed 11 mph (SW)    
Max Wind Speed 29 mph    
Max Gust Speed 39 mph    
T = Trace of Precipitation, MM = Missing Value Source: NWS Daily Summary

Daily Weather History Graph

Daily Weather History Graph

Search for Another Location

Airport or City:

Astronomy

May. 19, 2019 Rise Set
Actual Time 5:44 AM PDT 7:40 PM PDT
Civil Twilight 5:17 AM PDT 8:07 PM PDT
Nautical Twilight 4:44 AM PDT 8:40 PM PDT
Astronomical Twilight 4:09 AM PDT 9:16 PM PDT
Moon 8:45 PM PDT (5/19) 6:31 AM PDT (5/19)
Length of Visible Light 14h 50m
Length of Day
13h 55m
Full, 99% of the Moon is Illuminated
May 19
Full
May 26
Last Quarter
Jun 3
New
Jun 9
First Quarter
Jun 17
Full

Hourly Weather History & Observations

Time (PDT) Temp. Dew Point Humidity Pressure Visibility Wind Dir Wind Speed Gust Speed Precip Events Conditions
12:52 AM 46.9 °F 44.1 °F 90% 29.85 in - Calm Calm - N/A   Unknown
1:52 AM 46.9 °F 45.0 °F 93% 29.82 in - Calm Calm - N/A   Unknown
2:52 AM 48.0 °F 45.0 °F 89% 29.81 in - WSW 4.6 mph - N/A   Unknown
3:52 AM 50.0 °F 45.0 °F 83% 29.80 in - WSW 8.1 mph - N/A   Unknown
4:52 AM 48.9 °F 46.0 °F 90% 29.81 in - SW 9.2 mph - N/A   Unknown
5:52 AM 48.9 °F 46.0 °F 90% 29.79 in - SW 10.4 mph - N/A   Unknown
6:52 AM 50.0 °F 46.9 °F 89% 29.80 in - SW 10.4 mph - N/A   Unknown
7:52 AM 51.1 °F 46.0 °F 83% 29.82 in - SW 9.2 mph - N/A   Unknown
8:52 AM 52.0 °F 43.0 °F 71% 29.82 in - WSW 11.5 mph - N/A   Unknown
9:52 AM 54.0 °F 43.0 °F 66% 29.82 in - WSW 11.5 mph - N/A   Unknown
10:52 AM 54.0 °F 43.0 °F 66% 29.83 in - West 16.1 mph - N/A   Unknown
11:52 AM 50.0 °F 46.0 °F 86% 29.86 in - West 8.1 mph - 0.09 in   Unknown
12:52 PM 51.1 °F 48.0 °F 89% 29.85 in - SW 12.7 mph - 0.05 in   Unknown
1:52 PM 51.1 °F 48.9 °F 92% 29.83 in - SW 13.8 mph - N/A   Unknown
2:52 PM 53.1 °F 50.0 °F 89% 29.81 in - WSW 16.1 mph 23.0 mph 0.01 in   Unknown
3:52 PM 53.1 °F 50.0 °F 89% 29.80 in - SW 23.0 mph 39.1 mph 0.02 in   Unknown
4:52 PM 55.0 °F 48.0 °F 77% 29.80 in - SW 18.4 mph 27.6 mph 0.01 in   Unknown
5:52 PM 54.0 °F 43.0 °F 66% 29.80 in - WSW 20.7 mph 24.2 mph N/A   Unknown
6:52 PM 51.1 °F 44.1 °F 77% 29.80 in - SW 16.1 mph - N/A   Unknown
7:52 PM 50.0 °F 44.1 °F 80% 29.81 in - SW 12.7 mph - N/A   Unknown
8:52 PM 48.0 °F 44.1 °F 86% 29.83 in - SW 17.3 mph - N/A   Unknown
9:52 PM 48.0 °F 43.0 °F 83% 29.84 in - SW 17.3 mph - N/A   Unknown
10:52 PM 46.9 °F 42.1 °F 83% 29.83 in - SW 10.4 mph - N/A   Unknown
11:52 PM 46.9 °F 44.1 °F 90% 29.82 in - WSW 13.8 mph - N/A   Unknown